Meteo Giornale » Osservazioni meteo Croazia » Pula Aerodrome

ore: 00:00 - Osservazioni Meteo Pula Aerodrome
Lat. 45° 54' N Lon. 13° 55' E Alt. 63 metri s.l.m.

sereno Europe/Zagreb

16 °C

Sereno

Temp. 24 Ore

15 °C

22 °C

Nord-Est

20.3 Km/h

Dew point 6 °C

Umidità 51 %

Visibilità  10 Km

Il sole sorge alle ore 06:50

Il sole tramonta alle ore 19:03

Data e Ora Cielo e Fenomeni T °C DP °C Um. % Pres. hPa Vis. km Vento km/h
Oggi h: 00:00 sereno Sereno 16 6 51 1025 10 NE 20.3
Ieri h: 23:30 sereno Sereno 16 6 51 1025 10 NE 18.5
Ieri h: 23:00 sereno Sereno 16 5 47 1024 10 E/NE 18.5
Ieri h: 22:30 sereno Sereno 15 6 54 1024 10 E/NE 14.8
Ieri h: 22:00 sereno Sereno 15 7 58 1024 10 E/NE 16.7
Ieri h: 21:30 sereno Sereno 15 8 62 1024 10 E/NE 14.8
Ieri h: 21:00 sereno Sereno 15 8 62 1024 10 NE 13
Ieri h: 20:30 sereno Sereno 16 8 58 1024 10 NE 14.8
Ieri h: 19:30 sereno Sereno 16 8 58 1024 10 NE 11.1
Ieri h: 19:00 poco_nuvoloso Poco Nuvoloso 18 8 51 1024 10 N/NE 7.4
Ieri h: 16:30 sereno Sereno 21 8 43 1023 10 E 24
Ieri h: 16:00 sereno Sereno 21 8 43 1023 10 E 20.3
Ieri h: 15:30 sereno Sereno 21 8 43 1023 10 E 25.9
Ieri h: 15:00 sereno Sereno 21 8 43 1023 10 E 24
Ieri h: 14:30 sereno Sereno 22 7 37 1023 10 E 24
Ieri h: 14:00 sereno Sereno 21 8 43 1023 10 E/NE 20.3
Ieri h: 13:30 sereno Sereno 21 7 40 1023 10 E/NE 22.2
Ieri h: 12:30 sereno Sereno 21 7 40 1023 10 E/NE 22.2
Ieri h: 12:00 sereno Sereno 20 8 45 1023 10 E 27.8
Ieri h: 11:30 sereno Sereno 20 8 45 1023 10 E 29.6
Ieri h: 11:00 sereno Sereno 20 8 45 1022 10 E 29.6
Ieri h: 10:30 sereno Sereno 19 8 48 1022 10 E/NE 27.8
Ieri h: 10:00 sereno Sereno 19 8 48 1022 10 E 27.8
Ieri h: 09:30 sereno Sereno 18 8 51 1021 10 E/NE 24
Ieri h: 09:00 sereno Sereno 17 8 55 1021 10 E/NE 22.2
Ieri h: 08:30 sereno Sereno 16 8 58 1021 10 E/NE 22.2
Ieri h: 08:00 sereno Sereno 16 8 58 1021 10 E/NE 18.5
Ieri h: 07:30 sereno Sereno 16 8 58 1020 10 E/NE 22.2
Ieri h: 07:00 sereno Sereno 16 8 58 1020 10 E/NE 22.2
Ieri h: 06:30 sereno Sereno 16 8 58 1020 10 E/NE 20.3
Ieri h: 06:00 sereno Sereno 16 7 55 1020 10 E/NE 22.2
Ieri h: 05:30 sereno Sereno 16 7 55 1019 10 E/NE 22.2
Ieri h: 05:00 sereno Sereno 16 7 55 1019 10 E/NE 20.3
Ieri h: 04:30 sereno Sereno 17 7 51 1019 10 E/NE 22.2
Ieri h: 04:00 sereno Sereno 17 7 51 1019 10 E/NE 27.8
Ieri h: 03:30 sereno Sereno 17 6 48 1019 10 E/NE 25.9
Ieri h: 02:00 sereno Sereno 17 8 55 1019 10 E/NE 25.9
Ieri h: 01:30 sereno Sereno 17 8 55 1018 10 E/NE 27.8
Ieri h: 01:00 sereno Sereno 17 9 59 1019 10 E/NE 25.9